COSMOS 2251 DEB, 47073

Orbit data source: Space-Track

COSMOS 2251 DEB, 47073 is space debris in LEO originally from a launch on Wed, 16 Jun 1993 UTC launched from the Plesetsk Missile And Space Complex (PKMTR). The debris from Iridium 33, an American commercial communications satellite, has been tracked extensively since its accidental collision with the defunct Russian satellite Cosmos 2251 in 2009. This event, occurring at high speed in low Earth orbit (LEO), generated thousands of pieces of space debris, significantly increasing the risk of further collisions. The Iridium 33 debris cloud has impacted space traffic management and orbital debris mitigation strategies, making it a subject of ongoing study in space situational awareness.

Loading next visibility...
Identifier
47073, 1993-036BYD
Orbit
LEO
Country
Flag of CISCIS
Related business
Manufacturer
Unknown
Mission
Spacecraft
Bus & Motor
Unknown
Mass
Unknown
Launch date (UTC)
1993-06-16 (32 years ago)
Launch vehicle
Unknown
Launch site
Plesetsk Missile And Space Complex (PKMTR)
Object type
Payload
Rocket body
Debris
Shape & HBR
Unknown
Radar Cross Section
Small (<0.1 m²)

Expand to show TLE details & history
Last TLE update: 2 days ago

TLE from 2 days ago
0 COSMOS 2251 DEB
1 47073U 93036BYD 25259.98899098  .00000481  00000-0  28094-3 0  9994
2 47073  74.0850 352.7441 0161663  51.6480 309.9057 14.04498345591437
Epoch: 2025-09-16T23:44Z
TLE epoch observation values (Epoch: 2025-09-16T23:44:08.82Z)
Latitude
-0.00002°
Longitude
0.53596°
Altitude
806.7 km
Speed
7.488 km/s
True Right ascension
23h 30m 58s
True Declination
0° 00' 00"
Sunlit
Object was in full shadow at epoch
Visualization orbit readout
Latitude
Unknown
Longitude
Unknown
Altitude
Unknown
Speed
Unknown
Apparent Right ascension
Unknown
Apparent Declination
Unknown
Sunlit
N/A
Visualization observer readout
Local Sidereal Time
14:40:07
Azimuth
Unknown
Elevation
Unknown
Doppler factor
Unknown
Orbital elements
Apogee altitude
993.185 km
Perigee altitude
758.643 km
Semi-major axis
7,254.051 km
Eccentricity
0.01617
Inclination
74.085°
RAAN
352.7441°
Arg. of periapsis
51.648°
True anomaly
308.46613°
Mean anomaly
309.9057°
Eccentric anomaly
309.18777°
Mean motion
3.51295 °/min
Orbital period
102.48 mins
BSTAR
0.00028094
Loading maneuver chart data...
Computing Atmospheric mass density...

Documentation

Showing up to 5 results
|